Weather History for Oxford, NC

Change the Weather History Date:

Tuesday, January 28, 2014

  Actual Average (KTDF) Record (KTDF)
Temperature  
Mean Temperature 22 °F -  
Max Temperature 30 °F 49 °F 77 °F (2002)
Min Temperature 15 °F 25 °F 5 °F (1986)
Degree Days  
Heating Degree Days 42    
Moisture  
Dew Point 1 °F    
Average Humidity 44    
Maximum Humidity 88    
Minimum Humidity 18    
Precipitation  
Precipitation 0.02 in - - ()
Sea Level Pressure  
Sea Level Pressure 30.24 in    
Wind  
Wind Speed 8 mph (North)    
Max Wind Speed 12 mph    
Max Gust Speed 17 mph    
Visibility 8 miles    
Events Snow    
Averages and records for this station are not official NWS values.
T = Trace of Precipitation, MM = Missing Value Source: NWS Daily Summary

Daily Weather History Graph

Daily Weather History Graph

Search for Another Location

Airport:

Trip Planner

Search our weather history database for the weather conditions in past years. The results will help you decide how hot, cold, wet, or windy it might be!

Date:

Astronomy

Jan. 28, 2014 Rise Set
Actual Time 7:18 AM EST 5:36 PM EST
Civil Twilight 6:51 AM EST 6:03 PM EST
Nautical Twilight 6:20 AM EST 6:34 PM EST
Astronomical Twilight 5:49 AM EST 7:04 PM EST
Moon 4:57 AM EST (1/28) 3:25 PM EST (1/28)
Length of Visible Light 11h 12m
Length of Day
10h 17m
Waning Crescent, 7% of the Moon is Illuminated
Jan 28
Waning Crescent
Jan 30
New
Feb 6
First Quarter
Feb 14
Full
Feb 22
Last Quarter

Hourly Weather History & Observations

Time (EST) Temp. Windchill Dew Point Humidity Pressure Visibility Wind Dir Wind Speed Gust Speed Precip Events Conditions
12:15 AM 30.0 °F 21.1 °F -3.8 °F 23% 30.12 in 10.0 mi NNW 10.4 mph - N/A   Mostly Cloudy
12:35 AM 29.7 °F 22.0 °F -5.3 °F 22% 30.12 in 10.0 mi NNW 8.1 mph - N/A   Scattered Clouds
12:55 AM 30.0 °F 22.4 °F -6.2 °F 21% 30.13 in 10.0 mi NNW 8.1 mph 16.1 mph N/A   Mostly Cloudy
1:15 AM 30.0 °F 22.4 °F -7.1 °F 20% 30.14 in 10.0 mi North 8.1 mph - N/A   Overcast
1:35 AM 29.8 °F 22.2 °F -7.4 °F 20% 30.15 in 10.0 mi North 8.1 mph - N/A   Overcast
1:55 AM 29.3 °F 20.8 °F -8.1 °F 20% 30.16 in 10.0 mi North 9.2 mph - N/A   Overcast
2:15 AM 28.9 °F 23.9 °F -8.7 °F 19% 30.16 in 10.0 mi North 4.6 mph - N/A   Mostly Cloudy
2:35 AM 28.2 °F 20.2 °F -9.9 °F 19% 30.17 in 10.0 mi NNW 8.1 mph - N/A   Scattered Clouds
2:55 AM 28.0 °F 18.6 °F -10.5 °F 18% 30.18 in 10.0 mi North 10.4 mph - N/A   Scattered Clouds
3:15 AM 27.3 °F 18.4 °F -10.3 °F 19% 30.19 in 10.0 mi NNW 9.2 mph - N/A   Scattered Clouds
3:35 AM 27.3 °F 19.9 °F -8.9 °F 20% 30.19 in 10.0 mi NNW 6.9 mph - N/A   Mostly Cloudy
3:55 AM 27.1 °F 18.9 °F -8.7 °F 21% 30.20 in 10.0 mi North 8.1 mph - N/A   Mostly Cloudy
4:15 AM 27.0 °F 18.7 °F -8.0 °F 22% 30.20 in 10.0 mi North 8.1 mph 16.1 mph N/A   Mostly Cloudy
4:35 AM 26.6 °F 20.0 °F -6.5 °F 24% 30.20 in 10.0 mi NNW 5.8 mph - N/A   Scattered Clouds
4:55 AM 26.6 °F 19.1 °F -6.5 °F 24% 30.23 in 10.0 mi NNW 6.9 mph - N/A   Scattered Clouds
5:15 AM 26.2 °F 17.8 °F -7.6 °F 23% 30.23 in 10.0 mi NNW 8.1 mph - N/A   Mostly Cloudy
5:35 AM 26.1 °F 17.6 °F -7.1 °F 23% 30.23 in 10.0 mi North 8.1 mph - N/A   Scattered Clouds
5:55 AM 25.7 °F 17.1 °F -7.6 °F 23% 30.24 in 10.0 mi North 8.1 mph 17.3 mph N/A   Mostly Cloudy
6:15 AM 25.5 °F 16.9 °F -6.7 °F 24% 30.25 in 10.0 mi North 8.1 mph - N/A   Overcast
6:35 AM 25.5 °F 14.9 °F -6.9 °F 24% 30.26 in 10.0 mi North 11.5 mph - N/A   Overcast
6:55 AM 25.2 °F 16.5 °F -6.5 °F 25% 30.27 in 10.0 mi North 8.1 mph - N/A   Overcast
7:15 AM 25.0 °F 17.1 °F -5.8 °F 26% 30.28 in 10.0 mi North 6.9 mph - N/A   Overcast
7:35 AM 24.8 °F 14.6 °F -5.8 °F 26% 30.29 in 10.0 mi North 10.4 mph - N/A   Overcast
7:55 AM 24.8 °F 16.9 °F -5.3 °F 27% 30.30 in 10.0 mi North 6.9 mph - N/A   Overcast
8:15 AM 25.3 °F 17.6 °F -4.4 °F 27% 30.31 in 10.0 mi North 6.9 mph - N/A   Overcast
8:35 AM 25.2 °F 18.3 °F -4.7 °F 27% 30.31 in 10.0 mi North 5.8 mph - N/A   Mostly Cloudy
8:55 AM 25.3 °F 18.5 °F -4.0 °F 28% 30.32 in 10.0 mi North 5.8 mph - N/A   Mostly Cloudy
9:15 AM 26.1 °F 18.4 °F -4.7 °F 26% 30.31 in 10.0 mi North 6.9 mph - N/A   Overcast
9:35 AM 26.2 °F 16.4 °F -4.4 °F 26% 30.32 in 10.0 mi NE 10.4 mph - N/A   Mostly Cloudy
9:55 AM 25.7 °F 16.4 °F -4.7 °F 27% 30.32 in 10.0 mi NNE 9.2 mph - N/A   Scattered Clouds
10:15 AM 25.9 °F 16.6 °F -5.3 °F 26% 30.32 in 10.0 mi NE 9.2 mph - N/A   Scattered Clouds
10:35 AM 26.2 °F 17.1 °F -5.1 °F 26% 30.33 in 10.0 mi NNE 9.2 mph 16.1 mph N/A   Mostly Cloudy
10:55 AM 25.9 °F 16.6 °F -4.0 °F 27% 30.33 in 10.0 mi NE 9.2 mph - N/A   Mostly Cloudy
11:15 AM 26.2 °F 16.4 °F -4.7 °F 26% 30.32 in 10.0 mi North 10.4 mph - N/A   Overcast
11:35 AM 26.2 °F 16.4 °F -4.4 °F 26% 30.32 in 10.0 mi NNE 10.4 mph - N/A   Overcast
11:55 AM 26.6 °F 20.0 °F -3.1 °F 28% 30.31 in 10.0 mi North 5.8 mph - N/A   Overcast
12:15 PM 26.4 °F 17.3 °F -1.3 °F 30% 30.30 in 10.0 mi NE 9.2 mph - N/A   Overcast
12:35 PM 27.5 °F 18.6 °F -0.9 °F 29% 30.28 in 10.0 mi NNE 9.2 mph - N/A   Mostly Cloudy
12:55 PM 26.8 °F 19.3 °F -0.9 °F 30% 30.28 in 10.0 mi North 6.9 mph - N/A   Mostly Cloudy
1:15 PM 27.1 °F 20.7 °F -0.6 °F 30% 30.27 in 10.0 mi North 5.8 mph - N/A   Overcast
1:35 PM 26.1 °F 16.8 °F 0.3 °F 33% 30.27 in 10.0 mi NE 9.2 mph - N/A   Overcast
1:55 PM 26.2 °F 17.1 °F 0.3 °F 33% 30.26 in 10.0 mi North 9.2 mph - N/A   Overcast
2:15 PM 26.4 °F 17.3 °F 0.7 °F 33% 30.27 in 10.0 mi NE 9.2 mph - N/A   Overcast
2:35 PM 25.9 °F 16.6 °F 1.4 °F 35% 30.26 in 10.0 mi NNE 9.2 mph - N/A   Overcast
2:55 PM 26.1 °F 18.4 °F 3.7 °F 38% 30.26 in 10.0 mi NNE 6.9 mph - N/A   Overcast
3:15 PM 24.8 °F 15.3 °F 5.4 °F 44% 30.25 in 10.0 mi North 9.2 mph - N/A   Overcast
3:35 PM 23.9 °F 15.0 °F 5.9 °F 46% 30.25 in 10.0 mi NNE 8.1 mph - N/A   Overcast
3:55 PM 23.5 °F 12.4 °F 7.0 °F 49% 30.24 in 10.0 mi NNE 11.5 mph - N/A   Overcast
4:15 PM 23.0 °F 13.9 °F 8.1 °F 53% 30.25 in 10.0 mi NNE 8.1 mph - N/A   Overcast
4:35 PM 21.9 °F 13.4 °F 11.1 °F 63% 30.25 in 5.0 mi North 6.9 mph - N/A Snow Light Snow
4:55 PM 21.0 °F 13.4 °F 12.6 °F 70% 30.25 in 5.0 mi North 5.8 mph - N/A   Haze
5:15 PM 20.3 °F 13.8 °F 12.9 °F 73% 30.26 in 4.0 mi North 4.6 mph - N/A   Haze
5:35 PM 20.1 °F 11.3 °F 13.1 °F 74% 30.25 in 7.0 mi North 6.9 mph - N/A   Overcast
5:55 PM 19.6 °F 9.7 °F 12.9 °F 75% 30.25 in 10.0 mi North 8.1 mph - N/A   Overcast
6:15 PM 19.2 °F 8.4 °F 12.0 °F 74% 30.24 in 10.0 mi NNE 9.2 mph - N/A   Overcast
6:35 PM 19.0 °F 8.2 °F 11.8 °F 74% 30.24 in 10.0 mi NNE 9.2 mph 16.1 mph N/A   Overcast
6:55 PM 18.9 °F 8.8 °F 12.0 °F 75% 30.25 in 7.0 mi NE 8.1 mph - N/A   Overcast
7:15 PM 18.5 °F 8.4 °F 12.0 °F 76% 30.24 in 5.0 mi NNE 8.1 mph - N/A Snow Light Snow
7:35 PM 18.0 °F 8.7 °F 12.9 °F 81% 30.24 in 2.5 mi NNE 6.9 mph - N/A Snow Light Snow
7:55 PM 17.6 °F 6.4 °F 13.1 °F 83% 30.24 in 2.0 mi NNE 9.2 mph - N/A Snow Light Snow
8:15 PM 17.4 °F 6.2 °F 13.5 °F 84% 30.24 in 2.5 mi NNE 9.2 mph - N/A Snow Light Snow
8:35 PM 16.7 °F 7.2 °F 12.7 °F 84% 30.22 in 1.5 mi NNE 6.9 mph - N/A Snow Light Snow
8:55 PM 16.5 °F 6.9 °F 12.7 °F 85% 30.23 in 1.2 mi NNE 6.9 mph - N/A Snow Light Snow
9:15 PM 16.3 °F 7.8 °F 12.7 °F 86% 30.23 in 1.2 mi NNE 5.8 mph - 0.01 in Snow Light Snow
9:35 PM 16.0 °F 5.3 °F 12.4 °F 86% 30.22 in 1.2 mi NNE 8.1 mph - 0.01 in Snow Light Snow
9:55 PM 15.8 °F 5.1 °F 12.6 °F 87% 30.21 in 1.2 mi NNE 8.1 mph - 0.01 in Snow Light Snow
10:15 PM 15.8 °F 4.2 °F 12.4 °F 86% 30.21 in 1.2 mi NNE 9.2 mph - N/A Snow Light Snow
10:35 PM 15.8 °F 6.1 °F 12.0 °F 85% 30.21 in 1.8 mi NNE 6.9 mph - 0.01 in Snow Light Snow
10:55 PM 15.8 °F 10.2 °F 12.4 °F 86% 30.21 in 1.5 mi North 3.5 mph - 0.01 in Snow Light Snow
11:15 PM 15.8 °F 8.6 °F 12.7 °F 88% 30.20 in 2.0 mi North 4.6 mph - N/A Snow Light Snow
11:35 PM 15.8 °F 8.6 °F 12.2 °F 86% 30.20 in 3.0 mi North 4.6 mph - N/A Snow Light Snow
11:55 PM 16.0 °F 5.3 °F 11.8 °F 84% 30.20 in 10.0 mi North 8.1 mph - N/A   Overcast